EW9474 Hermosillo MX current weather conditions

sailwx.info

Wind from 180 at 1 knots gusting 1

Air temperature 25.6° C
Dewpoint 20.1° C

Last reported at 2020-May-31 13:53 UTC.
Time now 2020-May-31 14:26 UTC

Location: N 28°48' W 111°39'.
View on Google Maps.

See reports from other nearby stations

  
Tides and Currents Weather Stations Pressure Air Temp Water Temp Dewpoint Dewpoint Depression Visibility Wind Speed Wind Dir Waves Ship Positions
date/time (UTC)wind fromknots sea level pressurealtimeterstation pressurevisibilityair tempwater tempwave heightnotes
2020-May-31 14:03 180 1 gusting 2 26.7
2020-May-31 13:53 180 1 gusting 1 25.6
2020-May-31 13:43 180 0 gusting 1 25.0
2020-May-31 13:33 180 0 gusting 1 23.3
2020-May-31 13:23 22.8
2020-May-31 13:13 21.7
2020-May-31 13:03 21.7
2020-May-31 12:53 21.1
2020-May-31 12:43 21.1
2020-May-31 12:33 21.1
2020-May-31 12:23 21.1
2020-May-31 12:13 21.1
2020-May-31 12:03 21.1
2020-May-31 11:53 21.1
2020-May-31 11:43 21.1
2020-May-31 11:33 21.1
2020-May-31 11:23 21.1
2020-May-31 11:13 21.7
2020-May-31 11:03 21.1
2020-May-31 10:53 21.7
2020-May-31 10:43 21.7
2020-May-31 10:33 22.2
2020-May-31 10:23 22.2
2020-May-31 10:13 22.8
2020-May-31 10:03 22.8
2020-May-31 09:53 23.3
2020-May-31 09:43 23.3
2020-May-31 09:33 180 0 gusting 0 23.3
2020-May-31 09:23 23.3
2020-May-31 09:13 23.9
2020-May-31 09:03 180 0 gusting 1 23.9
2020-May-31 08:53 180 0 gusting 1 23.9
2020-May-31 08:43 180 0 gusting 1 24.4
2020-May-31 08:33 25.0
2020-May-31 08:23 180 0 gusting 0 25.0
2020-May-31 08:13 180 1 gusting 2 25.0
2020-May-31 08:03 180 1 gusting 2 25.0
2020-May-31 07:53 180 0 gusting 1 25.0
2020-May-31 07:43 180 0 gusting 0 25.0
2020-May-31 07:33 202 1 gusting 1 25.0
2020-May-31 05:33 25.0
2020-May-31 05:23 25.0
2020-May-31 05:13 25.0
2020-May-31 05:03 25.6
2020-May-31 04:53 225 0 gusting 0 25.6
2020-May-31 04:43 26.7
2020-May-31 04:33 26.7
2020-May-31 04:23 26.7
2020-May-31 04:13 225 0 gusting 1 27.2
2020-May-31 04:03 225 1 gusting 2 27.2
2020-May-31 03:53 225 0 gusting 2 27.2
2020-May-31 03:43 27.8
2020-May-31 03:33 225 0 gusting 1 27.8
2020-May-31 03:23 225 0 gusting 1 28.3
2020-May-31 03:13 28.3
2020-May-31 03:03 28.9
2020-May-31 02:53 225 0 gusting 1 28.9
2020-May-31 02:43 225 1 gusting 2 29.4
2020-May-31 02:33 225 0 gusting 1 29.4
2020-May-31 02:23 225 1 gusting 3 30.0
2020-May-31 02:13 247 1 gusting 3 30.6
2020-May-31 02:03 225 2 gusting 4 31.1
2020-May-31 01:53 225 3 gusting 6 31.7
2020-May-31 01:43 225 2 gusting 5 32.2
2020-May-31 01:33 225 2 gusting 6 32.8
2020-May-31 01:23 225 4 gusting 6 33.3
2020-May-31 01:13 247 3 gusting 5 33.9
2020-May-31 01:03 225 3 gusting 5 33.9
2020-May-31 00:53 225 5 gusting 6 35.0
2020-May-31 00:43 225 5 gusting 6 35.0
2020-May-31 00:33 247 5 gusting 6 35.6
2020-May-31 00:23 225 5 gusting 12 36.1
2020-May-31 00:13 270 7 gusting 11 35.6
2020-May-31 00:03 270 6 gusting 9 36.1
2020-May-30 23:53 225 5 gusting 7 36.1
2020-May-30 23:43 225 5 gusting 7 36.7
2020-May-30 23:33 247 3 gusting 6 36.7
2020-May-30 23:23 247 5 gusting 8 36.7
2020-May-30 23:13 270 6 gusting 10 36.7
2020-May-30 23:03 247 5 gusting 9 36.7
2020-May-30 22:53 247 6 gusting 11 37.2
2020-May-30 22:43 247 5 gusting 7 37.2
2020-May-30 22:34 247 6 gusting 9 37.8
2020-May-30 22:23 225 6 gusting 8 37.2
2020-May-30 22:03 270 7 gusting 12 37.2
2020-May-30 21:23 225 6 gusting 9 37.8
2020-May-30 20:53 247 4 gusting 6 37.8
2020-May-30 20:43 225 5 gusting 7 37.8
2020-May-30 20:33 225 6 gusting 8 37.8
2020-May-30 20:23 225 6 gusting 9 38.3
2020-May-30 20:13 225 6 gusting 8 38.3
2020-May-30 20:03 225 5 gusting 13 38.3
2020-May-30 19:53 225 2 gusting 4 38.3
2020-May-30 19:43 202 6 gusting 9 38.3
2020-May-30 19:33 225 1 gusting 4 38.3
2020-May-30 19:23 202 5 gusting 6 38.9
2020-May-30 19:13 180 0 gusting 1 38.3
2020-May-30 19:03 225 4 gusting 6 37.8
2020-May-30 18:53 225 4 gusting 6 38.3
2020-May-30 18:43 225 5 gusting 6 37.8
2020-May-30 18:33 247 1 gusting 3 37.2
2020-May-30 18:23 202 4 gusting 6 36.7
2020-May-30 18:13 202 2 gusting 10 36.7
2020-May-30 18:03 157 3 gusting 4 36.1
2020-May-30 17:53 135 2 gusting 4 35.6
2020-May-30 17:43 202 2 gusting 4 35.6
2020-May-30 17:33 202 1 gusting 4 35.0
2020-May-30 17:23 202 3 gusting 4 34.4
2020-May-30 17:13 225 0 gusting 2 33.9
2020-May-30 17:03 225 0 gusting 2 33.9
2020-May-30 16:53 180 1 gusting 3 33.3
2020-May-30 16:43 180 1 gusting 3 32.8
2020-May-30 16:33 202 1 gusting 2 32.2
2020-May-30 16:23 225 2 gusting 3 32.2
2020-May-30 16:13 31.7
2020-May-30 16:03 180 0 gusting 2 31.7
2020-May-30 15:53 180 0 gusting 1 31.7
2020-May-30 15:43 112 1 gusting 1 31.1
2020-May-30 15:33 225 0 gusting 1 30.6
2020-May-30 15:23 30.6
2020-May-30 15:13 022 0 gusting 1 30.0
2020-May-30 15:03 29.4
2020-May-30 14:53 28.9
2020-May-30 14:43 067 0 gusting 0 28.3
2020-May-30 14:33 067 0 gusting 1 27.8
2020-May-30 14:23 067 0 gusting 1 27.2
2020-May-30 14:13 090 2 gusting 3 26.7
2020-May-30 14:03 090 1 gusting 2 26.1
2020-May-30 13:53 090 2 gusting 3 25.0
2020-May-30 13:43 112 1 gusting 2 23.9
2020-May-30 13:33 135 1 gusting 2 22.8
2020-May-30 13:23 135 0 gusting 0 21.1
2020-May-30 13:13 20.6
2020-May-30 13:03 20.0
2020-May-30 12:53 20.0
2020-May-30 12:43 20.0
2020-May-30 12:33 20.6
2020-May-30 12:23 20.6
2020-May-30 12:13 21.1
2020-May-30 12:03 21.1
2020-May-30 11:53 21.1
2020-May-30 11:43 21.1
2020-May-30 11:34 21.1
2020-May-30 10:25 135 1 gusting 1 22.2
2020-May-30 09:23 135 1 gusting 2 21.7
2020-May-30 08:43 21.7
2020-May-30 08:33 21.7
2020-May-30 08:23 21.7
2020-May-30 08:13 22.2
2020-May-30 07:03 23.3
2020-May-30 06:53 23.3
2020-May-30 06:43 23.9
2020-May-30 06:33 24.4
2020-May-30 05:23 270 2 gusting 3 25.0
2020-May-30 05:13 247 0 gusting 1 25.6
2020-May-30 05:03 25.6
2020-May-30 04:53 25.6
2020-May-30 04:33 225 0 gusting 1 25.0
2020-May-30 04:23 225 0 gusting 0 25.6
2020-May-30 04:03 26.1
2020-May-30 03:53 26.7
2020-May-30 03:43 225 1 gusting 2 27.2
2020-May-30 03:33 225 0 gusting 1 27.2
2020-May-30 03:23 202 0 gusting 0 27.8
2020-May-30 03:13 202 1 gusting 2 27.8
2020-May-30 03:03 202 2 gusting 4 28.3
2020-May-30 02:53 202 2 gusting 3 28.3
2020-May-30 02:43 225 2 gusting 4 28.9
2020-May-30 02:33 225 2 gusting 3 29.4
2020-May-30 02:23 202 3 gusting 4 30.0
2020-May-30 02:13 225 1 gusting 2 30.6
2020-May-30 02:03 247 1 gusting 3 30.6
2020-May-30 01:53 225 1 gusting 4 31.1
2020-May-30 01:43 225 2 gusting 3 31.7
2020-May-30 01:33 247 2 gusting 5 32.2
2020-May-30 01:23 247 3 gusting 6 32.2
2020-May-30 01:13 270 6 gusting 8 32.2
2020-May-30 01:03 270 6 gusting 7 32.8
2020-May-30 00:53 270 5 gusting 7 33.3
2020-May-30 00:43 270 6 gusting 8 33.3
2020-May-30 00:33 270 6 gusting 8 34.4
2020-May-30 00:23 270 6 gusting 10 34.4
2020-May-30 00:13 225 5 gusting 7 35.6
2020-May-30 00:03 225 3 gusting 6 35.6
2020-May-29 23:53 225 4 gusting 6 36.1
2020-May-29 23:43 247 4 gusting 6 36.1
2020-May-29 23:33 247 2 gusting 4 36.1
2020-May-29 23:23 270 6 gusting 9 36.1
2020-May-29 23:13 247 4 gusting 6 36.7
2020-May-29 23:03 247 3 gusting 6 36.7
2020-May-29 22:53 270 3 gusting 5 36.1
2020-May-29 22:43 247 4 gusting 6 35.6
2020-May-29 22:33 270 5 gusting 7 35.6
2020-May-29 22:23 247 2 gusting 5 35.6
2020-May-29 22:13 247 3 gusting 7 35.6
2020-May-29 22:03 247 4 gusting 8 35.6
2020-May-29 21:53 225 5 gusting 9 35.6
2020-May-29 21:43 225 4 gusting 6 35.6
2020-May-29 21:33 225 5 gusting 6 35.0
2020-May-29 21:23 270 6 gusting 9 35.0
2020-May-29 21:13 225 4 gusting 6 35.0
2020-May-29 21:03 247 5 gusting 7 35.0
2020-May-29 20:53 247 4 gusting 7 35.0
2020-May-29 20:43 225 6 gusting 7 35.0
2020-May-29 20:33 225 6 gusting 11 35.0
2020-May-29 20:23 247 6 gusting 10 35.0
2020-May-29 20:13 270 6 gusting 10 35.0
2020-May-29 20:03 225 4 gusting 6 35.6
2020-May-29 19:53 247 6 gusting 8 35.6
2020-May-29 19:43 225 5 gusting 12 36.1
2020-May-29 19:33 225 6 gusting 9 36.1
2020-May-29 19:23 225 5 gusting 7 36.7
2020-May-29 19:13 225 4 gusting 5 36.1
2020-May-29 19:03 180 4 gusting 7 36.1
2020-May-29 18:53 247 4 gusting 6 36.1
2020-May-29 18:43 247 3 gusting 5 35.6
2020-May-29 18:33 202 6 gusting 9 36.1
2020-May-29 18:23 225 5 gusting 6 35.6
2020-May-29 18:13 202 2 gusting 5 35.6
2020-May-29 18:03 247 2 gusting 4 34.4
2020-May-29 17:53 202 3 gusting 5 34.4
2020-May-29 17:43 225 3 gusting 5 33.9
2020-May-29 17:33 225 4 gusting 5 33.9
2020-May-29 17:23 202 4 gusting 6 33.3
2020-May-29 17:13 247 2 gusting 3 33.3
2020-May-29 17:03 180 4 gusting 6 32.8
2020-May-29 16:53 225 1 gusting 4 32.2
2020-May-29 16:43 202 1 gusting 2 31.7
2020-May-29 16:33 31.1
2020-May-29 16:23 202 3 gusting 6 31.1
2020-May-29 16:13 202 3 gusting 5 30.6
2020-May-29 16:03 180 1 gusting 2 30.6
2020-May-29 15:53 202 1 gusting 2 30.0
2020-May-29 15:43 202 1 gusting 3 30.0
2020-May-29 15:33 157 2 gusting 6 30.0
2020-May-29 15:23 180 0 gusting 7 29.4
2020-May-29 15:13 180 1 gusting 6 28.9
2020-May-29 15:03 135 1 gusting 2 28.3
2020-May-29 14:53 135 2 gusting 4 27.8
2020-May-29 14:43 112 3 gusting 4 27.2
2020-May-29 14:33 135 2 gusting 3 26.7
2020-May-29 14:23 135 1 gusting 2 26.1
2020-May-29 14:13 135 2 gusting 3 25.0
2020-May-29 14:03 135 1 gusting 2 24.4